Location: Hochstatterhof
(48.7256°N, 10.3487°E)
Time: 03:00:56
(UTC+00:00)

Cosmos 2082 Rocket - Pass Details

Date: 26 September 2023
Orbit: 834 x 852 km, 71.0° (Epoch: 04 December)

Event Time Altitude Azimuth Distance (km) Brightness Sun altitude
Exits shadow 04:24:56 - 293° (WNW) 2,881 4.4 -8.3°
Reaches altitude 10° 04:27:09 10° 312° (NW) 2,490 4.3 -7.9°
Maximum altitude 04:29:12 12° 333° (NNW) 2,357 4.3 -7.6°
Drops below altitude 10° 04:31:17 10° 354° (N) 2,491 4.7 -7.2°
Sets 04:35:39 0° 26° (NNE) 3,427 5.8 -6.5°
